Theta_e
296 296 296 294 293 292 290 288 287 286 285 285 285 285 285 284 284 284 284 284 283 283 283 283 283 284 284 284 285 285 284 284 280 282 284 285 284 285 286 286 286 286 286
294 294 292 291 290 289 287 286 285 284 284 284 284 284 284 284 283 283 283 283 282 282 283 283 283 284 283 284 284 284 284 284 282 280 282 283 284 285 284 283 285 286 285
292 291 289 288 287 286 284 284 284 284 283 282 283 282 282 283 283 283 283 283 282 282 282 281 282 281 280 281 281 283 283 283 282 281 282 284 284 284 283 283 283 282 284
289 289 287 286 285 284 284 283 283 283 282 281 282 282 283 282 283 283 282 282 282 282 283 283 282 281 280 281 282 283 282 280 283 283 281 282 282 283 282 280 279 281 280
286 286 284 283 283 283 282 282 282 281 281 281 281 281 281 282 283 282 282 281 281 281 282 282 282 282 285 285 283 283 281 281 283 282 282 280 280 281 280 280 279 278 279
284 283 283 283 282 282 282 282 281 281 280 280 280 280 280 282 287 287 283 281 282 281 281 281 282 281 283 285 286 287 287 284 283 282 280 279 280 281 280 279 277 275 272
284 283 283 282 282 282 281 280 280 279 279 279 279 279 279 281 286 286 285 282 281 281 281 281 282 282 281 281 285 287 286 287 287 284 280 280 281 280 280 278 276 273 273
284 283 282 282 281 280 279 279 278 278 278 278 278 278 278 281 285 285 285 282 281 281 281 281 281 281 282 282 284 284 284 282 283 284 279 280 279 282 281 279 273 270 272
283 283 282 281 280 279 278 277 277 277 276 276 277 275 276 278 283 284 283 281 282 281 281 282 283 283 284 286 284 283 281 280 284 285 283 283 283 283 283 274 271 263 266
283 283 282 281 279 278 278 276 276 275 276 277 276 275 275 276 280 283 283 281 274 279 280 283 283 284 285 286 283 282 280 278 274 271 272 275 277 276 280 274 275 263 262
284 282 279 279 278 277 276 274 274 274 275 273 274 274 275 275 276 282 283 281 280 279 278 281 281 285 285 285 285 282 282 282 279 274 271 269 271 271 273 272 270 274 263
281 280 278 277 277 276 275 273 273 273 273 272 273 274 274 274 276 281 283 284 283 280 280 281 278 284 286 285 283 284 282 276 279 278 277 276 275 269 272 271 268 267 270
280 279 276 276 275 275 274 273 272 272 273 273 274 274 273 274 275 280 282 283 283 280 281 281 282 284 284 282 282 280 270 266 265 265 271 272 269 270 269 268 266 265 266
280 277 275 275 274 274 275 274 273 273 273 274 273 273 272 273 273 274 276 276 279 279 281 280 278 282 280 277 271 272 270 267 267 265 265 265 266 266 265 265 263 265 263
278 275 275 275 274 273 274 274 274 274 275 274 274 273 272 272 274 277 277 273 271 277 278 275 272 276 274 268 264 264 264 264 263 263 261 261 263 264 265 264 263 262 262
275 275 274 274 274 273 273 272 277 276 277 278 278 275 274 278 280 282 281 281 282 282 278 275 272 273 271 264 263 263 263 262 262 261 259 260 261 262 264 267 264 262 264
277 276 275 274 274 273 272 272 271 274 278 279 280 281 281 279 281 280 280 281 280 279 267 267 271 267 263 263 262 262 261 261 259 259 259 259 260 259 260 264 265 265 265
278 276 275 275 275 274 273 273 273 270 270 270 278 279 281 281 279 279 279 272 268 262 255 259 261 258 258 259 259 259 258 258 258 257 257 256 255 256 260 262 262 260 261
276 275 276 275 273 273 272 270 269 269 269 264 262 271 274 279 278 277 276 261 260 257 255 255 254 256 256 255 255 254 253 254 254 253 253 254 256 257 256 257 259 261 261
275 274 273 272 269 268 269 268 266 266 265 266 265 269 262 262 262 261 255 253 253 255 255 255 254 252 252 253 251 250 251 251 251 251 252 253 254 254 256 255 255 256 257
270 268 269 267 267 267 268 266 266 265 265 265 266 265 268 264 264 262 259 256 257 256 257 256 253 252 251 249 248 249 249 252 251 251 251 252 254 254 253 257 253 252 251
269 267 266 265 266 264 266 264 262 263 263 264 263 262 274 269 263 261 259 258 257 256 256 255 254 253 253 252 252 252 251 252 251 251 252 252 252 253 253 254 254 252 250
265 264 264 262 264 264 263 264 263 263 263 263 262 262 261 263 261 260 260 258 256 255 255 254 255 252 252 252 253 254 254 254 256 253 254 251 252 252 251 251 252 251 250
262 263 263 264 264 264 265 264 264 264 264 263 262 262 263 262 258 260 260 258 256 255 255 257 256 255 254 252 252 252 253 254 253 255 256 254 253 253 254 253 251 251 253
261 262 263 264 263 263 264 264 264 264 264 264 263 262 262 261 260 260 260 259 255 256 258 258 257 257 256 255 254 252 254 259 256 256 254 255 254 254 253 254 254 253 253
258 258 258 258 259 260 263 263 263 263 264 263 263 263 263 262 262 261 260 259 257 258 259 258 257 257 255 255 255 257 257 260 258 259 256 255 255 255 254 254 253 253 253
Wind_Speed
7 8 9 10 10 11 11 10 9 7 7 7 7 6 7 6 5 6 6 5 6 5 4 5 7 7 5 6 5 6 6 6 8 10 10 12 14 14 13 12 12 12 13
8 10 9 11 11 13 10 8 7 8 6 7 7 6 6 6 5 6 5 5 5 6 6 6 6 4 4 4 3 6 5 6 6 13 11 10 12 15 12 14 11 10 12
8 11 10 10 12 12 10 8 8 8 7 6 7 6 6 6 6 5 5 5 5 5 5 5 4 3 3 3 3 3 4 5 5 7 11 10 9 10 13 10 13 12 10
9 11 11 10 11 11 9 9 8 7 7 6 6 5 6 5 5 5 5 5 5 5 4 3 2 2 3 4 4 5 5 4 8 8 8 9 9 10 7 13 16 11 14
10 10 9 9 9 9 9 8 7 7 6 6 6 5 5 5 3 5 4 5 5 4 3 2 1 3 4 5 3 4 4 3 5 6 6 9 9 11 11 9 9 12 12
9 9 9 9 9 9 9 8 7 7 6 6 5 5 5 3 7 7 5 4 4 3 1 2 3 3 4 9 9 11 10 6 6 4 7 9 9 8 8 8 9 10 8
9 9 10 10 9 8 8 8 7 7 6 6 5 5 5 4 7 6 6 3 3 1 1 2 3 2 4 4 8 12 10 11 10 5 7 7 9 9 8 9 9 5 5
11 10 9 10 9 8 8 7 6 5 6 5 5 4 5 3 6 5 4 3 2 1 1 2 1 4 4 5 5 6 3 6 5 2 2 5 3 7 5 4 4 7 8
13 13 12 11 11 10 9 8 5 5 3 3 4 4 4 3 4 4 4 3 2 1 2 3 1 4 5 10 3 0 3 6 6 6 7 7 8 10 9 1 4 4 4
15 15 13 11 11 11 9 8 3 3 5 4 4 4 4 4 3 6 5 2 1 1 3 2 5 4 6 8 2 1 6 4 3 5 5 6 6 6 8 1 2 0 2
13 11 11 10 10 9 8 4 6 5 5 4 4 3 3 4 4 6 5 3 2 2 2 2 3 8 7 7 6 3 5 4 7 4 4 3 3 3 4 3 3 2 2
13 13 12 10 8 8 10 6 7 7 6 5 4 3 3 3 6 6 6 6 6 2 4 4 3 10 9 7 4 8 8 6 3 4 4 4 5 3 4 4 3 3 3
14 13 12 10 9 9 10 9 6 5 5 5 4 4 3 3 3 7 6 7 8 4 4 6 8 9 6 5 5 4 2 2 2 2 2 2 2 3 5 4 3 4 3
14 13 11 12 10 8 6 6 6 6 5 5 5 5 4 3 3 3 3 3 6 5 7 4 6 4 3 2 3 2 1 1 2 1 1 2 2 3 3 2 2 4 2
11 11 11 9 10 8 6 7 6 4 7 7 6 6 6 6 5 8 6 3 4 6 5 2 1 2 1 1 1 1 0 1 1 1 0 2 1 1 2 3 1 2 1
12 10 9 9 8 7 7 4 9 8 14 12 11 9 5 7 10 12 11 12 9 10 5 4 3 2 3 2 2 1 1 1 1 0 1 1 1 1 1 3 0 1 2
14 13 10 10 9 9 8 8 8 7 12 15 17 16 17 10 14 12 13 10 9 8 3 2 3 3 4 4 3 3 2 2 1 1 2 0 2 2 1 2 2 2 2
10 14 12 11 10 9 9 9 7 9 9 6 14 14 17 15 14 13 11 1 2 1 2 3 4 4 3 3 2 3 2 1 1 1 1 1 1 1 1 1 1 0 1
8 8 7 6 6 7 6 6 5 6 7 3 1 6 8 16 15 12 8 3 4 4 3 3 3 3 3 3 3 3 3 3 2 1 3 1 2 1 1 1 3 3 2
4 6 6 6 6 6 5 6 6 6 5 6 6 8 3 3 3 4 2 3 2 3 3 3 3 3 3 3 3 3 2 2 2 2 3 2 2 1 1 1 2 1 1
4 4 6 4 5 6 6 6 4 5 6 7 7 6 12 6 5 5 4 5 4 4 4 4 3 2 2 2 3 3 3 3 3 2 3 2 2 0 1 2 1 2 2
4 5 5 6 5 5 6 5 5 4 5 6 4 4 16 7 5 5 5 4 5 5 4 3 4 4 5 5 5 4 3 4 3 3 3 3 3 2 1 2 1 1 1
3 4 4 3 5 5 5 6 6 7 7 6 4 4 3 4 4 5 5 5 4 4 4 4 4 4 4 4 4 4 5 5 4 4 4 3 3 2 2 2 2 1 2
4 5 6 5 5 6 6 7 7 8 7 6 5 5 6 6 5 6 5 5 4 4 4 4 5 7 5 5 5 5 4 4 3 4 6 4 3 3 2 2 3 3 3
3 5 5 5 6 6 6 6 6 6 6 5 5 5 5 5 5 5 5 4 3 4 5 6 5 7 9 9 7 8 7 10 6 6 4 5 5 6 4 4 4 3 3
2 3 2 2 2 3 4 5 5 6 6 6 6 6 6 6 6 5 5 5 4 4 5 4 6 9 9 8 8 9 8 10 9 10 6 6 6 6 5 7 7 5 5
Wind_Direction
134 130 134 128 130 122 118 122 128 126 126 123 125 116 106 98 90 89 87 80 85 83 61 65 52 39 35 25 16 6 355 341 313 317 318 323 327 335 337 330 325 324 323
139 131 133 129 140 120 121 122 128 126 117 123 119 109 110 106 94 104 106 93 93 88 74 69 53 41 34 18 3 351 339 324 307 309 322 328 333 332 321 328 331 331 332
140 133 134 142 130 123 129 130 126 124 122 120 122 124 121 120 121 112 107 107 109 104 99 92 74 43 13 350 330 313 306 312 313 308 321 329 321 332 331 336 341 334 335
143 141 143 144 132 132 136 136 133 132 129 126 121 127 128 131 123 112 120 119 103 110 116 116 94 30 344 329 310 289 292 296 322 323 320 325 335 335 336 344 340 348 332
144 144 141 128 125 131 131 128 126 125 130 130 125 121 131 135 138 130 130 123 122 134 132 131 213 254 294 298 327 296 300 299 313 316 320 330 336 345 355 339 328 329 325
150 142 137 134 138 141 137 137 132 129 132 131 129 138 146 145 141 143 136 126 133 131 157 294 290 304 332 326 320 331 315 319 319 321 330 328 325 338 342 344 335 345 340
149 146 146 145 148 147 139 137 144 144 136 136 140 148 155 162 161 156 138 139 145 164 257 305 327 340 336 317 313 312 311 322 323 315 319 321 324 339 330 335 339 322 292
160 157 155 155 151 149 148 149 140 141 146 142 148 155 155 166 166 165 149 154 170 198 258 267 326 325 311 302 293 295 315 314 296 303 263 283 272 331 327 343 298 291 276
175 171 168 167 160 157 162 157 146 134 132 133 150 162 156 160 176 178 139 123 133 263 278 265 4 266 314 309 304 330 306 285 310 6 357 356 359 352 346 14 338 9 318
183 178 170 166 163 167 157 150 130 131 145 139 148 154 151 160 198 194 161 143 96 274 291 273 270 295 306 319 299 254 313 295 350 347 349 358 351 328 347 193 277 125 269
171 158 156 161 159 151 140 126 141 129 122 141 148 152 172 189 219 210 186 150 187 231 224 245 261 295 307 317 327 309 304 345 330 330 326 322 316 330 331 318 301 232 179
156 155 158 152 149 148 144 137 138 139 149 155 150 178 209 212 222 210 213 215 226 194 253 256 255 296 300 305 322 307 334 338 287 301 320 325 326 309 313 300 292 286 244
159 158 152 145 144 149 150 150 143 151 160 158 178 187 200 212 227 218 215 221 228 232 238 255 273 299 312 306 301 321 39 20 345 23 331 283 258 286 297 324 324 319 298
162 157 151 151 149 150 148 156 154 171 171 175 180 205 200 221 216 196 217 227 239 245 250 254 264 262 91 90 52 19 9 5 186 207 257 282 306 338 321 322 4 343 360
158 157 158 155 159 156 166 172 180 186 183 177 197 189 184 212 215 200 199 215 217 230 234 207 184 196 185 353 344 279 14 18 61 310 13 317 312 317 315 326 53 345 49
156 161 164 156 159 164 167 163 209 207 205 207 204 189 212 218 210 217 230 238 241 245 244 220 197 197 221 200 213 262 271 312 268 337 49 345 308 323 330 310 8 45 319
176 169 163 160 168 172 176 178 182 215 215 216 221 221 220 214 221 228 236 235 247 254 205 210 202 197 204 196 196 195 210 225 220 208 155 289 307 294 29 315 335 359 325
178 176 172 174 177 178 185 194 188 174 186 204 228 219 224 214 220 227 230 72 218 27 175 193 206 193 200 192 185 200 218 240 220 277 252 170 234 229 308 292 326 238 290
171 177 178 172 174 175 172 170 188 171 183 153 130 245 221 214 220 219 214 181 200 218 207 210 191 185 192 186 197 205 202 209 189 173 260 188 252 198 261 290 297 310 294
147 158 164 162 157 164 176 187 186 187 181 191 200 204 163 120 199 183 178 188 208 236 203 206 202 185 193 192 194 192 217 238 213 176 243 227 244 199 242 266 277 293 271
153 135 152 136 175 183 181 185 195 192 200 203 215 194 196 195 196 193 197 202 208 220 216 203 197 207 214 194 189 190 200 231 222 200 222 227 218 231 225 272 265 254 235
167 169 173 189 174 181 198 175 164 196 231 216 193 208 221 208 201 198 211 214 210 204 195 194 209 203 192 194 198 197 194 227 220 203 221 213 214 199 213 242 266 243 221
158 165 177 169 189 173 183 196 196 198 200 220 200 178 199 228 204 203 207 209 204 202 185 194 205 233 220 211 214 208 184 221 216 183 210 199 209 202 185 224 212 249 218
168 178 187 193 192 203 208 206 210 205 207 205 199 194 211 217 214 226 215 209 192 201 192 205 211 211 215 218 213 220 211 223 193 200 200 192 209 210 200 209 217 227 250
194 205 211 210 203 206 208 213 213 207 202 208 212 211 213 212 216 228 224 214 185 186 216 209 212 223 229 231 228 226 220 237 208 200 193 188 210 208 210 221 218 220 227
191 199 199 184 172 182 202 208 204 201 209 204 208 204 208 210 216 215 217 203 205 206 219 231 231 229 230 232 232 232 225 227 220 208 190 193 208 218 212 223 222 223 226